Flag for Mexico Weather past 2 weeks in Mexicali, Baja California, Mexico

Now
53 °F

Overcast.


Feels Like: 53 °F
Forecast: 49 / 65 °F
Wind: 3 mph from Northwest

Location: Imperial County Airport

Current Time: Mar 1, 2015 at 10:00:16 PM

Latest Report: Mar 1, 2015 at 8:53 PM


Visibility: 10 mi

Pressure: 29.95 "Hg

Humidity: 89%

Dew point: 50 °F

Location of MexicaliLocation

Historic Weather in Mexicali — Graph

°F

Mexicali temperature yesterday

Maximum temperature yesterday: 72 °F (at 12:53 PM)
Minimum temperature yesterday: 59 °F (at 7:53 PM)
Average temperature yesterday: 64 °F

Past Weeks' High & Low Weather Summary

 TemperatureHumidityPressure
High85 °F (Feb 19, 2:53 PM)100% (Feb 17, 6:53 AM)30.18 "Hg (Feb 17, 6:53 AM)
Low45 °F (Feb 25, 6:53 AM)13% (Feb 25, 3:53 PM)29.61 "Hg (Feb 27, 2:53 PM)
Average64 °F49%29.91 "Hg
* Reported Feb 14 8:53 PM — Mar 1 8:53 PM, Mexicali, Weather by CustomWeather, © 2015

Note: Actual official high and low records may vary slightly from our data, if they occured in-between our weather recording intervals... More about our weather records

Advertising

Mexicali weather history for previous 24 hours

 ConditionsComfort  
Time TempWeatherWind HumidityBarometerVisibility
8:53 PM
Sun, Mar 1
53 °FOvercast.3 mph89%29.95 "Hg10 mi
7:53 PM53 °FLight rain. Mostly cloudy.6 mph93%29.96 "Hg10 mi
6:53 PM53 °FLight rain. Overcast.5 mph93%29.95 "Hg10 mi
5:53 PM53 °FLight rain. Mostly cloudy.6 mph93%29.94 "Hg8 mi
4:53 PM54 °FMore clouds than sun.9 mph86%29.93 "Hg10 mi
3:53 PM54 °FLight rain. Mostly cloudy.9 mph90%29.95 "Hg10 mi
2:53 PM55 °FMore clouds than sun.10 mph90%29.94 "Hg10 mi
1:53 PM55 °FLight rain. More clouds than sun.13 mph93%29.94 "Hg8 mi
1:04 PM55 °FLight rain. Fog.8 mph93%29.95 "Hg6 mi
12:53 PM55 °FLight rain. Fog.10 mph90%29.95 "Hg5 mi
11:53 AM55 °FLight rain. Overcast.7 mph90%29.97 "Hg9 mi
10:53 AM55 °FLight rain. Fog.5 mph90%30.00 "Hg4 mi
9:53 AM54 °FLight rain. Fog.3 mph93%29.99 "Hg5 mi
8:53 AM54 °FLight rain. Fog.6 mph93%29.98 "Hg6 mi
7:53 AM55 °FLight rain. Overcast.7 mph87%29.94 "Hg10 mi
6:53 AM57 °FLight rain. Overcast.9 mph67%29.91 "Hg10 mi
5:53 AM59 °FMostly cloudy.6 mph56%29.90 "Hg10 mi
4:53 AM60 °FMostly cloudy.No wind53%29.89 "Hg10 mi
3:53 AM60 °FPassing clouds.7 mph52%29.88 "Hg10 mi
2:53 AM58 °FClear.5 mph58%29.89 "Hg10 mi
1:53 AM59 °FClear.8 mph56%29.90 "Hg10 mi
12:53 AM58 °FClear.14 mph58%29.87 "Hg10 mi
11:53 PM
Sat, Feb 28
60 °FClear.20 mph52%29.86 "Hg10 mi
10:53 PM59 °FPassing clouds.13 mph54%29.87 "Hg10 mi
Weather by CustomWeather, © 2015

See weather overviewHow to use our weather pages